1,427,657개(467/71383페이지)
LECTURE
번호 제목 글쓴이 조회 날짜
1418337 Aliran Registrasi Di Agen Judi Online Ya VestergaardHartmann5489 7 2022.04.27 01:45
1418336 非常不錯小说 戰神狂飆- 第5187章一发不可收拾 耽耽逐逐 明日天涯 閲讀-p 사진 NixonPollock2168 12 2022.04.27 01:45
1418335 Megagame Review - Carry out Slot Free wi MaynardKara8931 10 2022.04.27 01:45
1418334 10 Superior Linkedin Strategies To Imple RaahaugeMcMahon2054 11 2022.04.27 01:45
1418333 What's An Earnings Assertion WyattTermansen1935 8 2022.04.27 01:45
1418332 Why It Pays to be able to Work With a Pr FreemanMaher9499 14 2022.04.27 01:45
1418331 The Ultimate Information To Influencer A MaciasOwens3733 14 2022.04.27 01:45
1418330 "Zły Także Zagraniczne Demony" 사진 OddershedeMadden5829 10 2022.04.27 01:45
1418329 Information To Financial Institution Rec KirkpatrickByrne7212 11 2022.04.27 01:44
1418328 Can I place HID light bulbs in my supply 사진 KlitParsons1058 8 2022.04.27 01:44
1418327 What do you understand about LED cars an 사진 MahoneyGuy4502 18 2022.04.27 01:44
1418326 Are demon eye fronts lights legal? 사진 LawrenceMcKnight6091 5 2022.04.27 01:44
1418325 Are demon eye fronts lights legal? 사진 LawrenceMcKnight6091 5 2022.04.27 01:44
1418324 Teknik Hindarkan Rugi Taruhan Judi Onlin DohnLindhardt0671 1 2022.04.27 01:44
1418323 Six Shortcuts For Neon Sign That Gets Yo KofoedKeegan1952 10 2022.04.27 01:44
1418322 Find Out How To Make Neon Sign HyllestedEwing9284 2 2022.04.27 01:44
1418321 Permainan Di Tempat Gambling Permainan P DreyerShore5110 4 2022.04.27 01:44
1418320 Breakfast Menu Choices For An Event Or E HayBreen7015 6 2022.04.27 01:44
1418319 Eight Greatest Natural Home Cleansing Pr BarbeeOddershede7614 1 2022.04.27 01:44
1418318 6 Common Risks For Consulting Firms JoensenGonzales6491 7 2022.04.27 01:44